Weather History for Fort Leonard Wood, MO

Change the Weather History Date:

Thursday, December 6, 2012

  Actual Average Record
Temperature  
Mean Temperature 48 °F -  
Max Temperature 59 °F 46 °F 69 °F (1998)
Min Temperature 37 °F 33 °F 10 °F (2013)
Degree Days  
Heating Degree Days 17    
Moisture  
Dew Point 42 °F    
Average Humidity 78    
Maximum Humidity 100    
Minimum Humidity 54    
Precipitation  
Precipitation 0.00 in - - ()
Sea Level Pressure  
Sea Level Pressure 29.95 in    
Wind  
Wind Speed 7 mph (SE)    
Max Wind Speed 9 mph    
Max Gust Speed -    
Visibility 9 miles    
Events      
Averages and records for this station are not official NWS values.
T = Trace of Precipitation, MM = Missing Value Source: NWS Daily Summary

Daily Weather History Graph

Daily Weather History Graph

Search for Another Location

Airport:

Trip Planner

Search our weather history database for the weather conditions in past years. The results will help you decide how hot, cold, wet, or windy it might be!

Date:

Astronomy

Dec. 06, 2012 Rise Set
Actual Time 7:10 AM CST 4:49 PM CST
Civil Twilight 6:40 AM CST 5:18 PM CST
Nautical Twilight 6:08 AM CST 5:51 PM CST
Astronomical Twilight 5:36 AM CST 6:23 PM CST
Moon No Moon Rise 12:09 PM CST (12/6)
Length of Visible Light 10h 37m
Length of Day
9h 39m
Waning Gibbous, 49% of the Moon is Illuminated
Dec 6
Waning Gibbous
Dec 13
New
Dec 19
First Quarter
Dec 28
Full
Jan 4
Last Quarter

Hourly Weather History & Observations

Time (CST) Temp. Windchill Dew Point Humidity Pressure Visibility Wind Dir Wind Speed Gust Speed Precip Events Conditions
12:55 AM 39.7 °F 34.9 °F 32.5 °F 75% 30.08 in 10.0 mi SE 6.9 mph - N/A   Clear
1:55 AM 37.8 °F 32.5 °F 32.7 °F 82% 30.08 in 10.0 mi SE 6.9 mph - N/A   Clear
2:55 AM 38.5 °F 32.7 °F 33.6 °F 83% 30.06 in 10.0 mi SSE 8.1 mph - N/A   Clear
3:55 AM 39.0 °F 34.0 °F 34.2 °F 83% 30.04 in 10.0 mi SE 6.9 mph - N/A   Clear
4:55 AM 38.7 °F 33.6 °F 33.8 °F 83% 30.03 in 10.0 mi SE 6.9 mph - N/A   Clear
5:55 AM 37.6 °F 31.6 °F 34.3 °F 88% 30.03 in 10.0 mi SE 8.1 mph - N/A   Clear
6:55 AM 37.9 °F 32.7 °F 34.2 °F 86% 30.04 in 10.0 mi South 6.9 mph - N/A   Clear
7:55 AM 39.6 °F 34.0 °F 35.2 °F 85% 30.03 in 10.0 mi SSE 8.1 mph - N/A   Mostly Cloudy
8:55 AM 41.9 °F 36.3 °F 36.1 °F 80% 30.03 in 10.0 mi SSE 9.2 mph - N/A   Scattered Clouds
9:55 AM 48.0 °F - 37.2 °F 66% 30.03 in 10.0 mi SSE 6.9 mph - N/A   Clear
10:55 AM 52.2 °F - 38.3 °F 59% 30.00 in 10.0 mi Variable 5.8 mph - N/A   Scattered Clouds
11:55 AM 58.3 °F - 41.7 °F 54% 29.97 in 10.0 mi South 9.2 mph - N/A   Clear
12:55 PM 57.6 °F - 41.9 °F 56% 29.94 in 10.0 mi South 8.1 mph - N/A   Clear
1:55 PM 59.2 °F - 45.7 °F 61% 29.92 in 10.0 mi South 8.1 mph - N/A   Overcast
2:55 PM 57.6 °F - 45.5 °F 64% 29.90 in 10.0 mi SE 8.1 mph - N/A   Mostly Cloudy
2:58 PM 57.2 °F - 44.6 °F 63% 29.90 in 1.2 mi SE 8.1 mph - N/A   Haze
2:59 PM 57.2 °F - 44.6 °F 63% 29.90 in 0.8 mi SE 6.9 mph - N/A   Haze
3:01 PM 57.2 °F - 44.6 °F 63% 29.90 in 0.5 mi SE 6.9 mph - N/A   Haze
3:08 PM 57.2 °F - 44.6 °F 63% 29.90 in 1.0 mi SSE 5.8 mph - N/A   Haze
3:09 PM 57.2 °F - 44.6 °F 63% 29.90 in 2.5 mi SSE 6.9 mph - N/A   Haze
3:10 PM 57.2 °F - 44.6 °F 63% 29.90 in 5.0 mi SSE 6.9 mph - N/A   Haze
3:55 PM 57.2 °F - 45.3 °F 65% 29.89 in 10.0 mi SE 5.8 mph - N/A   Mostly Cloudy
4:55 PM 53.2 °F - 46.0 °F 77% 29.89 in 10.0 mi SE 6.9 mph - N/A   Overcast
5:55 PM 50.7 °F - 45.9 °F 83% 29.90 in 10.0 mi SSE 6.9 mph - N/A   Clear
6:55 PM 50.4 °F - 46.4 °F 86% 29.90 in 10.0 mi SSE 5.8 mph - N/A   Partly Cloudy
7:55 PM 47.8 °F - 45.7 °F 92% 29.90 in 10.0 mi SE 8.1 mph - N/A   Clear
8:55 PM 48.2 °F - 45.7 °F 91% 29.90 in 10.0 mi East 4.6 mph - N/A   Clear
9:55 PM 47.1 °F - 46.0 °F 96% 29.89 in 10.0 mi ESE 6.9 mph - N/A   Clear
10:55 PM 45.7 °F 44.4 °F 45.5 °F 99% 29.88 in 10.0 mi SE 3.5 mph - N/A   Clear
11:29 PM 44.6 °F - 44.6 °F 100% 29.90 in 10.0 mi Calm Calm - N/A   Overcast
11:30 PM 44.6 °F - 44.6 °F 100% 29.90 in 10.0 mi Calm Calm - N/A   Overcast
11:36 PM 46.4 °F 45.2 °F 44.6 °F 93% 29.89 in 10.0 mi ENE 3.5 mph - N/A   Overcast
11:38 PM 46.4 °F 45.2 °F 44.6 °F 93% 29.89 in 10.0 mi ENE 3.5 mph - N/A   Overcast
11:55 PM 46.4 °F 45.2 °F 46.2 °F 99% 29.88 in 10.0 mi ENE 3.5 mph - N/A   Overcast